"Pseudo-MPEC" for P10LfY5

Created 2019 Jan 15 15:18:19 UT using Find_Orb

Click here for an explanation of pseudo-MPECs

 
 Astrometry: 
     P10LfY5  C2019 01 095Qy=ha_a;#hO'J[-hv9#RKjlub?8WjLlAc/gAstrometryJ(YmX`F51
     P10LfY5  C2019 01 09bAf,h;naT%QZqM`5\(7a0qTBWK5%0XtLT:XBV)d+5DVb_kxg)9QTF51
     P10LfY5  C2019 01 09\v?.*Z@L6F/+xxb`]-redacted;9$6RVD*0LGU/wt='T8SD^=xD;F51
     P10LfY5 KC2019 01 119^Uo(/S8\mkxBbYvgu9*s]yJC/_62RNhGWwTo3.=$,_A@5A-047*H21
     P10LfY5 KC2019 01 11_fE3TFD,:?/1xop?5+:BO3$TIXHbDmOS:Nclick9nh2#S0sIOb.DH21
     P10LfY5 KC2019 01 11vYP.'l-Nv`BJS78e:kvgn%PI5'vS+$*dT8E!Etw_pG8-9$^TCRYsH21
     P10LfY5 KC2019 01 11u7_F8_G83DQ)kjk^HmBjN[\hererL,vGCv`iiy6[242Ya=$._x3J291
     P10LfY5 KC2019 01 11p7a9kRt#f`sF=ZcAh#HAj]:,ZD'Tuy$g`=Xlk[YQ/Yniv62y8SD0291
     P10LfY5 KC2019 01 11%Xv)y7FW)kmBu7EL'W%sdforI)UbEEC_WshW0hhnY5d!7`l7fMHk291
     P10LfY5 KC2019 01 15uHr-YEOjV=Y$Pnh+`(RQn%y:LfU!.2P0hHqGnFl$=%\GsJS3-+U0291
     P10LfY5 KC2019 01 15G6hW$k)9OrqGwSnJW!8d,V@qN5-g:E4*4E/%NirXaiY8BMbS)518291
     P10LfY5 KC2019 01 159:L'`5`h$X?GYWCa?wjexplanationtoY+-@D4hqV'e\/KqI:O(n291

Station data:
(291) LPL/Spacewatch II  (N31.961669 W111.599905)  US/Arizona.  Observers J.
   V. Scotti, R. S. McMillan. 1.8-m f/2.7 reflector + CCD.
(F51) Pan-STARRS 1, Haleakala  (N20.707235 W156.255910)  US/Hawaii.
   Observers N. Primak, A. Schultz, S. Watters, J. Thiel, T. Goggia. Measurer
   PS1 Science Consortium. 1.8-m Ritchey-Chrétien + CCD.
(H21) Astronomical Research Observatory, Westfield  (N39.483057 W87.968270)
   US/Illinois. 0.76-m f/3.0 astrograph + CCD.

Orbital elements:  P10LfY5
   Perihelion 2019 Jun 9.671503 +/- 0.284 TT = 16:06:57 (JD 2458644.171503)
Epoch 2019 Jan 15.0 TT = JDT 2458498.5   Earth MOID: 0.1872   Ma: 0.0839
M 323.59170132 +/- 1.1              (J2000 ecliptic)          AutoNEOCP
n   0.24993425 +/- 0.0079           Peri.  283.86571 +/- 0.31
a   2.49604375 +/- 0.0526           Node   298.28799 +/- 0.14
e   0.6253615 +/- 0.0103            Incl.   24.50410 +/- 0.54
P   3.94                   H 20.3   G  0.15   U  9.5  
q 0.93511407 +/- 0.00592    Q 4.05697342 +/- 0.108
From 12 observations 2019 Jan. 9-15; mean residual 0".24
Residuals in arcseconds: 
190109 F51  .17+  .17-    190111 H21  .42-  .17+    190111 291  .12-  .25-    
190109 F51  .01-  .01+    190111 H21  .34-  .11-    190115 291  .01+  .06+    
190109 F51  .01-  .09-    190111 291  .39+  .02+    190115 291  .27-  .23+    
190111 H21  .12-  .25+    190111 291  .45+  .27+    190115 291  .28+  .39-    

Ephemerides (geocentric):
Date (UTC) HH   RA              Dec         delta   r     elong  mag " sig PA
---- -- -- --  -------------   -----------  ------ ------ -----  --- ---- ---
2019 01 15 15  07 24 13.542   +28 01 07.81  .98166 1.9597 171.3 22.1 .168 125
2019 01 15 16  07 24 07.927   +28 00 41.68  .98136 1.9593 171.3 22.1 .179 126
2019 01 15 17  07 24 02.311   +28 00 15.51  .98107 1.9590 171.3 22.1 .190 127
2019 01 15 18  07 23 56.692   +27 59 49.31  .98078 1.9586 171.2 22.1 .202 128
2019 01 15 19  07 23 51.072   +27 59 23.06  .98049 1.9583 171.2 22.1 .213 128
2019 01 15 20  07 23 45.449   +27 58 56.77  .98020 1.9580 171.2 22.1 .225 129
2019 01 15 21  07 23 39.825   +27 58 30.44  .97991 1.9576 171.1 22.1 .238 129
2019 01 15 22  07 23 34.199   +27 58 04.06  .97962 1.9573 171.1 22.1 .250 130
2019 01 15 23  07 23 28.572   +27 57 37.65  .97933 1.9570 171.0 22.1 .263 130
2019 01 16 00  07 23 22.943   +27 57 11.19  .97904 1.9566 171.0 22.1 .276 130
2019 01 16 01  07 23 17.311   +27 56 44.70  .97875 1.9563 171.0 22.1 .289 131
2019 01 16 02  07 23 11.679   +27 56 18.16  .97846 1.9559 170.9 22.1 .302 131
2019 01 16 03  07 23 06.044   +27 55 51.58  .97818 1.9556 170.9 22.1 .316 131
2019 01 16 04  07 23 00.408   +27 55 24.96  .97789 1.9553 170.8 22.1 .330 131
2019 01 16 05  07 22 54.770   +27 54 58.30  .97760 1.9549 170.8 22.1 .344 131
2019 01 16 06  07 22 49.130   +27 54 31.59  .97732 1.9546 170.7 22.1 .358 132
2019 01 16 07  07 22 43.489   +27 54 04.85  .97703 1.9542 170.7 22.1 .373 132
2019 01 16 08  07 22 37.846   +27 53 38.06  .97675 1.9539 170.7 22.1 .387 132
2019 01 16 09  07 22 32.202   +27 53 11.24  .97647 1.9536 170.6 22.1 .402 132
2019 01 16 10  07 22 26.556   +27 52 44.37  .97618 1.9532 170.6 22.1 .418 132
2019 01 16 11  07 22 20.908   +27 52 17.46  .97590 1.9529 170.5 22.1 .433 132
2019 01 16 12  07 22 15.259   +27 51 50.51  .97562 1.9525 170.5 22.1 .449 132
2019 01 16 13  07 22 09.608   +27 51 23.51  .97534 1.9522 170.4 22.1 .465 132
2019 01 16 14  07 22 03.955   +27 50 56.48  .97505 1.9519 170.4 22.1 .481 132
2019 01 16 15  07 21 58.301   +27 50 29.40  .97477 1.9515 170.4 22.1 .497 132
2019 01 16 16  07 21 52.646   +27 50 02.29  .97449 1.9512 170.3 22.1 .514 132
2019 01 16 17  07 21 46.988   +27 49 35.13  .97421 1.9508 170.3 22.1 .531 132
2019 01 16 18  07 21 41.330   +27 49 07.93  .97394 1.9505 170.2 22.1 .548 132
2019 01 16 19  07 21 35.670   +27 48 40.69  .97366 1.9502 170.2 22.1 .565 132
2019 01 16 20  07 21 30.008   +27 48 13.41  .97338 1.9498 170.1 22.1 .583 132
2019 01 16 21  07 21 24.345   +27 47 46.08  .97310 1.9495 170.1 22.1 .601 132
2019 01 16 22  07 21 18.681   +27 47 18.72  .97282 1.9491 170.0 22.1 .619 132
2019 01 16 23  07 21 13.015   +27 46 51.31  .97255 1.9488 170.0 22.1 .637 132
2019 01 17 00  07 21 07.347   +27 46 23.86  .97227 1.9485 170.0 22.1 .656 132
2019 01 17 01  07 21 01.678   +27 45 56.37  .97200 1.9481 169.9 22.1 .675 132
2019 01 17 02  07 20 56.008   +27 45 28.84  .97172 1.9478 169.9 22.1 .694 132
2019 01 17 03  07 20 50.337   +27 45 01.27  .97145 1.9474 169.8 22.1 .713 132
2019 01 17 04  07 20 44.664   +27 44 33.66  .97117 1.9471 169.8 22.1 .733 132
2019 01 17 05  07 20 38.989   +27 44 06.01  .97090 1.9467 169.7 22.1 .753 132
2019 01 17 06  07 20 33.314   +27 43 38.31  .97063 1.9464 169.7 22.1 .773 131
2019 01 17 07  07 20 27.637   +27 43 10.57  .97036 1.9461 169.6 22.1 .793 131
2019 01 17 08  07 20 21.958   +27 42 42.80  .97009 1.9457 169.6 22.1 .814 131
2019 01 17 09  07 20 16.279   +27 42 14.98  .96981 1.9454 169.5 22.1 .835 131
2019 01 17 10  07 20 10.598   +27 41 47.11  .96954 1.9450 169.5 22.1 .856 131
2019 01 17 11  07 20 04.916   +27 41 19.21  .96927 1.9447 169.4 22.1 .877 131
2019 01 17 12  07 19 59.232   +27 40 51.27  .96900 1.9444 169.4 22.1 .899 131
2019 01 17 13  07 19 53.547   +27 40 23.28  .96874 1.9440 169.3 22.1 .921 131
2019 01 17 14  07 19 47.862   +27 39 55.26  .96847 1.9437 169.3 22.1 .943 131